Tracking 25710 objects as of 5-Jul-2022
HD Live streaming from Space Station
objects crossing your sky now

ANDESITE

Track ANDESITE now!
10-day predictions


NORAD ID: 45726
Int'l Code: 2020-037D
Perigee: 586.9 km
Apogee: 605.3 km
Inclination: 97.7 °
Period: 96.5 minutes
Semi major axis: 6967 km
RCS: Unknown
Launch date: June 13, 2020
Source: United States (US)
Launch site: Rocket Lab Launch Complex (RLLC)
aabbcc
Your satellite tracking list
Your tracking list is empty




NASA's NSSDC Master Catalog

Two Line Element Set (TLE):
1 45726U 20037D   22185.72809865  .00001079  00000-0  10943-3 0  9996
2 45726  97.7399   2.4104 0013189 327.5880  32.4498 14.92874973109460
Source of the keplerian elements: AFSPC